Weather reports worldwide

Advertisment
Gilze-Rijen, Netherlands (6350): temperature & dewpoint: 10.10.2019 05:00:00 - 16.10.2019 05:00:00 (CEST)Gilze-Rijen, Netherlands (6350): temperature 5cm: 10.10.2019 05:00:00 - 16.10.2019 05:00:00 (CEST)Gilze-Rijen, Netherlands (6350): wind speed & gusts: 10.10.2019 05:00:00 - 16.10.2019 05:00:00 (CEST)Gilze-Rijen, Netherlands (6350): wind direction: 10.10.2019 05:00:00 - 16.10.2019 05:00:00 (CEST)Gilze-Rijen, Netherlands (6350): reduced air pressure: 10.10.2019 05:00:00 - 16.10.2019 05:00:00 (CEST)Gilze-Rijen, Netherlands (6350): visibility: 10.10.2019 05:00:00 - 16.10.2019 05:00:00 (CEST)Gilze-Rijen, Netherlands (6350): precipitation: 10.10.2019 05:00:00 - 16.10.2019 05:00:00 (CEST)
Date & Time tt [°C] td [°C] tt 5cm [°C] ff [km/h] ff [kn] fx [km/h] fx [kn] dd ppp [hPa] vv [km] rr [mm]
16.10.2019 05:00:00 10,7 9,6 9,9 15 8 18 10 S 1008,5 10 0,0
16.10.2019 04:00:00 11,4 9,7 10,6 13 7 25 14 SSW 1008,6 10 0,0
16.10.2019 03:00:00 12,3 10,4 11,7 13 7 22 12 SSW 1008,6 10 0,0
16.10.2019 02:00:00 12,5 10,8 11,9 11 6 14 8 SSW 1008,5 10 0,0
16.10.2019 01:00:00 12,5 11,0 11,8 9 5 14 8 S 1008,6 10 0,0
16.10.2019 00:00:00 12,4 11,3 11,8 9 5 14 8 SSW 1008,3 10 0,0
15.10.2019 23:00:00 12,7 11,9 12,1 5 3 22 12 SW 1008,4 10 0,1
15.10.2019 22:00:00 13,4 11,7 13,1 15 8 25 14 SW 1008,1 10 0,2
15.10.2019 21:00:00 13,4 12,8 12,8 8 4 14 8 S 1007,4 10 0,0
15.10.2019 20:00:00 13,8 13,1 13,3 9 5 14 8 S 1007,1 10 0,0
15.10.2019 19:00:00 14,2 13,1 13,8 9 5 14 8 S 1006,5 10 0,0
15.10.2019 18:00:00 14,7 13,1 14,4 9 5 18 10 SW 1006,0 10 0,0
15.10.2019 17:00:00 15,1 12,7 14,8 9 5 22 12 SSW 1006,2 10 0,1
15.10.2019 16:00:00 16,0 12,2 16,0 13 7 25 14 SSW 1006,2 10 0,0
15.10.2019 15:00:00 16,3 13,0 16,4 11 6 18 10 SSW 1006,1 10 0,0
15.10.2019 14:00:00 16,5 13,2 17,0 5 3 18 10 SW 1006,2 10 0,0
15.10.2019 13:00:00 16,2 13,3 - 15 8 25 14 SW 1006,5 10 0,0
15.10.2019 12:00:00 16,0 13,7 16,3 15 8 25 14 SSW 1006,1 10 0,0
15.10.2019 11:00:00 15,7 14,5 15,6 9 5 22 12 S 1005,8 10 0,1
15.10.2019 10:00:00 15,0 14,1 14,6 11 6 18 10 S 1006,1 10 0,0
15.10.2019 09:00:00 14,5 13,6 14,1 9 5 14 8 S 1005,4 10 0,2
15.10.2019 08:00:00 14,5 13,3 13,9 8 4 11 6 S 1005,3 10 0,1
15.10.2019 07:00:00 14,4 12,8 13,7 8 4 14 8 S 1005,0 10 0,0
15.10.2019 06:00:00 15,7 12,7 14,7 9 5 22 12 SSW 1004,9 10 0,0
15.10.2019 05:00:00 16,3 12,6 15,4 11 6 25 14 SSW 1004,8 10 0,0
15.10.2019 04:00:00 16,5 12,8 14,5 11 6 22 12 S 1004,9 10 0,0
15.10.2019 03:00:00 16,2 13,2 15,1 13 7 25 14 S 1004,8 10 0,0
15.10.2019 02:00:00 16,7 14,2 15,2 15 8 22 12 S 1004,9 10 0,0
15.10.2019 01:00:00 16,1 14,4 14,8 9 5 14 8 SSE 1004,8 10 0,0
15.10.2019 00:00:00 16,8 14,8 16,0 13 7 22 12 SE 1004,7 10 0,0
14.10.2019 23:00:00 16,7 15,3 15,8 9 5 18 10 ESE 1005,0 10 0,1
14.10.2019 22:00:00 17,5 15,4 16,1 9 5 14 8 ESE 1005,3 10 0,0
14.10.2019 21:00:00 17,6 15,7 15,6 11 6 14 8 ESE 1005,6 10 0,0
14.10.2019 20:00:00 16,6 15,2 14,8 5 3 14 8 ESE 1005,9 10 0,0
14.10.2019 19:00:00 18,5 15,5 16,6 8 4 14 8 ESE 1006,2 10 0,0
14.10.2019 18:00:00 19,8 15,7 19,1 11 6 22 12 SE 1006,0 10 0,0
14.10.2019 17:00:00 20,9 16,1 20,7 9 5 14 8 ESE 1006,7 10 0,0
14.10.2019 16:00:00 20,9 15,6 20,5 13 7 25 14 ESE 1007,4 10 0,0
14.10.2019 15:00:00 20,8 16,0 21,6 16 9 25 14 E 1008,1 10 0,0
14.10.2019 14:00:00 18,2 15,2 19,1 18 10 22 12 E 1009,3 10 0,0
14.10.2019 13:00:00 16,4 14,8 16,5 9 5 25 14 ENE 1010,5 10 2,5
14.10.2019 12:00:00 16,1 13,6 16,6 18 10 32 18 E 1011,1 10 0,0
14.10.2019 11:00:00 15,2 13,6 15,9 15 8 18 10 E 1012,0 10 0,0
14.10.2019 10:00:00 13,5 13,3 13,5 8 4 14 8 ESE 1012,6 10 0,0
14.10.2019 09:00:00 11,8 11,8 11,2 2 1 7 4 - 1012,7 6 0,0
14.10.2019 08:00:00 10,4 10,4 8,7 4 2 4 2 - 1012,9 4,7 0,0
14.10.2019 07:00:00 11,1 11,0 8,9 2 1 11 6 - 1013,1 1,1 0,0
14.10.2019 06:00:00 12,3 12,2 10,3 5 3 11 6 S 1012,8 1,2 0,0
14.10.2019 05:00:00 12,6 12,3 10,5 4 2 11 6 SSE 1013,1 10 0,0
14.10.2019 04:00:00 13,5 12,6 12,8 5 3 11 6 SSW 1012,8 10 0,0
14.10.2019 03:00:00 14,0 13,1 13,5 8 4 14 8 WSW 1013,1 10 0,0
14.10.2019 02:00:00 14,1 13,2 13,5 8 4 14 8 WSW 1012,6 10 0,0
14.10.2019 01:00:00 14,4 13,6 13,9 9 5 18 10 SW 1012,2 10 0,0
14.10.2019 00:00:00 14,6 13,8 14,0 13 7 22 12 SSW 1011,8 10 0,0
13.10.2019 23:00:00 15,0 14,0 14,6 11 6 18 10 SSW 1010,8 10 0,0
13.10.2019 22:00:00 15,2 14,3 14,9 11 6 36 19 SW 1010,1 10 1,0
13.10.2019 21:00:00 16,2 15,3 15,9 11 6 32 18 SW 1008,9 10 0,4
13.10.2019 20:00:00 17,1 16,3 16,7 24 13 58 31 WSW 1008,1 4,6 5,7
13.10.2019 19:00:00 21,9 14,6 21,1 24 13 50 27 SSW 1005,9 10 0,0
13.10.2019 18:00:00 22,1 14,8 21,3 22 12 43 23 SSW 1005,9 10 0,0
13.10.2019 17:00:00 22,9 15,4 22,8 24 13 43 23 SSW 1005,7 10 0,0
13.10.2019 16:00:00 22,7 15,2 22,2 26 14 50 27 SSW 1005,9 10 0,0
13.10.2019 15:00:00 23,3 15,4 23,5 26 14 47 25 SSW 1005,3 10 0,0
13.10.2019 14:00:00 22,7 15,3 22,7 34 18 47 25 S 1005,4 10 0,0
13.10.2019 13:00:00 22,3 15,8 22,0 29 16 43 23 S 1006,1 10 0,0
13.10.2019 12:00:00 20,7 16,3 20,6 26 14 40 21 S 1006,6 10 0,0
13.10.2019 11:00:00 18,2 16,1 18,2 21 11 32 18 SSE 1006,8 10 0,0
13.10.2019 10:00:00 16,5 15,5 16,2 16 9 22 12 SSE 1007,4 10 0,0
13.10.2019 09:00:00 16,0 15,2 15,5 13 7 22 12 S 1007,3 10 0,0
13.10.2019 08:00:00 15,2 14,7 14,2 11 6 14 8 S 1007,1 10 0,0
13.10.2019 07:00:00 13,9 13,6 12,6 8 4 11 6 SSE 1007,3 10 0,0
13.10.2019 06:00:00 15,0 14,4 14,2 8 4 11 6 S 1007,8 10 0,0
13.10.2019 05:00:00 15,0 14,2 14,1 9 5 11 6 S 1007,9 10 0,0
13.10.2019 04:00:00 15,3 14,3 14,6 11 6 18 10 S 1008,0 10 0,0
13.10.2019 03:00:00 14,8 14,2 13,9 11 6 18 10 S 1008,4 10 0,0
13.10.2019 02:00:00 10,5 10,5 7,8 5 3 7 4 SE 1008,7 4,1 0,0
13.10.2019 01:00:00 10,7 10,7 7,1 4 2 7 4 SE 1009,3 3,1 0,0
13.10.2019 00:00:00 10,3 10,2 7,9 2 1 4 2 ESE 1010,0 0,4 0,0
12.10.2019 23:00:00 11,6 11,5 9,7 0 0 4 2 N 1009,6 5 0,0
12.10.2019 22:00:00 12,3 12,0 10,7 4 2 11 6 ESE 1009,8 3,2 0,0
12.10.2019 21:00:00 12,5 12,2 12,2 5 3 11 6 E 1009,5 2,6 0,0
12.10.2019 20:00:00 11,7 11,4 11,1 8 4 11 6 NNE 1009,3 7 0,0
12.10.2019 19:00:00 12,7 11,9 12,3 8 4 11 6 - 1009,5 10 0,0
12.10.2019 18:00:00 13,3 12,4 13,4 11 6 14 8 NNE 1009,2 10 0,0
12.10.2019 17:00:00 14,2 12,9 14,8 9 5 14 8 N 1009,8 10 0,0
12.10.2019 16:00:00 14,4 13,2 15,1 9 5 11 6 N 1009,9 10 0,0
12.10.2019 15:00:00 14,8 13,4 14,9 5 3 18 10 NW 1010,2 10 0,0
12.10.2019 14:00:00 16,9 13,0 16,8 15 8 29 16 SW 1010,0 10 0,0
12.10.2019 13:00:00 16,6 12,9 16,6 16 9 29 16 SW 1009,8 10 0,0
12.10.2019 12:00:00 15,7 12,4 15,4 15 8 25 14 SSW 1009,5 10 0,0
12.10.2019 11:00:00 15,1 12,2 14,8 15 8 29 16 SW 1009,4 10 0,0
12.10.2019 10:00:00 14,9 12,0 14,6 15 8 25 14 SW 1008,8 10 0,0
12.10.2019 09:00:00 14,7 11,7 14,3 18 10 29 16 SSW 1008,2 10 0,0
12.10.2019 08:00:00 14,4 11,7 13,8 15 8 29 16 SSW 1007,5 10 0,0
12.10.2019 07:00:00 14,5 11,6 13,9 16 9 29 16 SSW 1007,3 10 0,0
12.10.2019 06:00:00 14,8 11,8 14,1 15 8 29 16 SSW 1007,2 10 0,0
12.10.2019 05:00:00 15,1 11,9 14,0 15 8 25 14 SSW 1007,3 10 0,0
12.10.2019 04:00:00 16,0 12,0 15,1 16 9 29 16 SSW 1007,2 10 0,0
12.10.2019 03:00:00 16,2 12,2 15,5 16 9 29 16 SSW 1007,5 10 0,0
12.10.2019 02:00:00 16,1 12,1 15,0 16 9 32 18 SSW 1007,6 10 0,0
12.10.2019 01:00:00 16,7 12,2 15,9 22 12 36 19 SSW 1007,7 10 0,0
12.10.2019 00:00:00 16,7 12,2 16,0 21 11 40 21 SSW 1008,1 10 0,0
11.10.2019 23:00:00 16,8 12,3 16,0 22 12 40 21 SSW 1008,5 10 0,0
11.10.2019 22:00:00 16,5 12,4 15,8 21 11 43 23 SSW 1008,4 10 0,0
11.10.2019 21:00:00 16,4 12,4 15,7 24 13 47 25 SSW 1008,2 10 0,0
11.10.2019 20:00:00 16,1 12,4 15,3 24 13 47 25 SSW 1008,6 10 0,0
11.10.2019 19:00:00 15,8 12,3 15,1 22 12 40 21 SSW 1008,9 10 0,0
11.10.2019 18:00:00 15,2 12,3 14,5 22 12 36 19 SSW 1009,2 10 0,0
11.10.2019 17:00:00 14,5 12,9 14,1 24 13 36 19 SSW 1009,3 10 0,2
11.10.2019 16:00:00 14,5 13,0 14,2 26 14 43 23 SSW 1009,9 10 0,4
11.10.2019 15:00:00 14,7 12,5 14,5 26 14 40 21 SSW 1010,3 10 0,1
11.10.2019 14:00:00 14,5 12,4 14,3 28 15 47 25 SSW 1011,0 10 0,2
11.10.2019 13:00:00 14,6 12,1 14,4 24 13 47 25 SSW 1011,4 10 0,0
11.10.2019 12:00:00 14,7 12,2 14,6 26 14 54 29 SSW 1011,5 10 0,0
11.10.2019 11:00:00 14,4 11,9 14,3 26 14 43 23 SSW 1011,8 10 0,0
11.10.2019 10:00:00 13,4 11,6 13,0 24 13 40 21 SSW 1012,0 10 0,0
11.10.2019 09:00:00 13,0 11,0 12,5 21 11 36 19 SSW 1011,8 10 0,0
11.10.2019 08:00:00 12,6 10,7 12,1 22 12 36 19 SSW 1012,0 10 0,2
11.10.2019 07:00:00 12,7 10,5 12,2 22 12 36 19 SSW 1011,9 10 0,1
11.10.2019 06:00:00 13,3 10,2 12,8 21 11 36 19 SSW 1012,4 10 0,1
11.10.2019 05:00:00 13,9 9,2 13,4 21 11 32 18 SSW 1012,3 10 0,0
11.10.2019 04:00:00 13,7 8,9 13,1 16 9 36 19 SSW 1012,9 10 0,0
11.10.2019 03:00:00 13,5 8,7 12,9 21 11 36 19 SSW 1013,3 10 0,0
11.10.2019 02:00:00 13,1 8,6 12,5 26 14 36 19 SSW 1013,4 10 0,0
11.10.2019 01:00:00 13,3 8,8 12,3 18 10 32 18 SSW 1014,0 10 0,0
11.10.2019 00:00:00 13,7 9,3 12,7 18 10 29 16 SSW 1014,2 10 0,0
10.10.2019 23:00:00 13,9 9,5 12,9 18 10 32 18 SW 1014,4 10 0,0
10.10.2019 22:00:00 14,0 9,2 12,9 18 10 29 16 SSW 1014,1 10 0,0
10.10.2019 21:00:00 13,5 8,7 12,4 13 7 43 23 SSW 1014,4 10 0,0
10.10.2019 20:00:00 13,4 8,3 11,4 9 5 14 8 SSW 1014,5 10 0,0
10.10.2019 19:00:00 14,0 8,3 13,0 8 4 14 8 SW 1014,1 10 0,0
10.10.2019 18:00:00 14,6 8,5 14,0 11 6 40 21 WSW 1013,9 10 0,0
10.10.2019 17:00:00 15,0 7,7 14,7 21 11 40 21 W 1013,8 10 0,0
10.10.2019 16:00:00 15,8 8,4 15,9 18 10 40 21 W 1013,7 10 0,0
10.10.2019 15:00:00 15,3 9,2 14,5 18 10 43 23 WSW 1013,3 10 0,0
10.10.2019 14:00:00 14,8 8,9 15,2 21 11 43 23 WSW 1013,0 10 0,0
10.10.2019 13:00:00 14,1 9,4 14,8 13 7 36 19 WSW 1012,8 10 0,0
10.10.2019 12:00:00 13,3 9,4 13,8 21 11 40 21 SW 1012,3 10 0,0
10.10.2019 11:00:00 12,5 10,1 12,5 18 10 32 18 SW 1012,1 10 0,0
10.10.2019 10:00:00 11,2 9,6 11,2 16 9 29 16 SW 1011,3 10 0,0
10.10.2019 09:00:00 9,8 8,9 9,3 13 7 22 12 SW 1010,3 10 0,0
10.10.2019 08:00:00 9,7 9,0 9,4 11 6 25 14 SW 1009,2 10 0,3
10.10.2019 07:00:00 9,4 8,7 8,6 11 6 22 12 SSW 1008,5 10 0,0
10.10.2019 06:00:00 9,6 8,9 9,1 15 8 22 12 SSW 1007,9 10 0,5
10.10.2019 05:00:00 9,7 8,8 9,0 9 5 14 8 SW 1007,4 10 0,2

tt = temperature
td = dewpoint
tt 5cm = temperature 5cm
ff = wind speed
fx = gusts
dd = wind direction
ppp = reduced air pressure
vv = visibility
rr = precipitation

Next stations